Lapse_Rate
5.6 6.5 6.5 6.5 6.5 6.5 6.5 6.5 6.5 6.5 6.5 6.5 6.5 6.5 6.5 5.9 4.2 4.5 2.9 2.1 1.6 1.7 1.4 0.8 0.6 0.1 -0.3 -0.5 -0.5 -0.4 -0.5 -0.6 -0.5 -0.8 -0.9 -0.5 -1.1 -1.9 -2.4 -1.8 -1.4 -1.4 -1.2 -1.2
6.5 6.5 6.5 6.5 6.5 6.5 6.5 6.5 6.5 6.5 6.5 6.5 6.5 6.5 6.5 6.5 6.0 4.3 3.7 2.5 1.7 1.5 1.2 0.5 -0.0 -0.3 -0.4 -0.7 -0.7 -0.6 -0.2 -0.7 -0.2 0.1 0.5 0.1 -1.0 -1.8 -2.1 -1.9 -1.8 -1.4 -1.3 -0.9
6.5 6.5 6.4 6.5 6.5 6.5 6.5 6.5 6.5 6.5 6.5 6.5 6.5 6.5 6.5 6.5 6.1 5.2 3.9 2.5 1.8 1.1 0.7 0.5 0.2 -0.4 -1.3 -0.9 -1.1 -0.5 -0.4 -0.5 -0.2 0.2 -0.5 -0.8 -1.2 -1.5 -1.4 -1.8 -2.1 -1.9 -1.2 -1.1
6.5 6.4 6.5 6.5 6.5 6.5 6.5 6.5 6.5 6.5 6.5 6.5 6.5 6.5 6.5 6.5 6.5 6.5 4.8 3.3 2.0 0.7 0.7 0.8 0.2 -1.2 -1.0 -1.2 -1.1 -0.1 -0.2 -0.3 -0.2 -0.3 0.3 0.4 0.5 0.1 -1.0 -1.5 -2.1 -2.1 -1.3 -1.5
6.5 6.5 6.5 6.5 6.5 6.5 6.5 6.5 6.5 6.5 6.5 6.5 6.5 6.5 6.5 6.5 6.5 6.5 6.4 3.0 2.7 0.9 0.3 0.2 -0.1 -0.1 -1.0 -0.8 -1.1 -0.6 -0.2 -0.1 -0.4 -0.5 0.3 0.2 0.1 -0.6 -1.5 -1.8 -1.9 -1.7 -1.8 -1.1
6.5 6.1 6.5 6.5 6.5 6.5 6.5 6.5 6.5 6.5 6.5 6.5 6.5 6.5 6.5 6.5 6.5 6.5 6.4 4.0 3.5 1.4 0.8 0.5 -0.3 -0.8 -0.8 -0.7 -0.8 -1.0 -0.6 -0.3 -0.5 -0.5 -0.5 -0.3 -0.2 -1.1 -1.5 -1.6 -1.7 -1.7 -1.8 -1.7
6.5 6.5 6.5 6.3 6.5 6.5 6.5 6.5 6.5 6.5 6.5 6.5 6.5 6.5 6.5 6.5 6.5 6.5 6.5 5.3 3.0 1.4 0.9 0.3 0.0 -0.3 -0.5 -0.8 -1.0 -0.8 -0.3 -0.0 -0.4 -0.6 -0.8 -0.7 -0.8 -0.8 -1.0 -1.8 -2.3 -1.2 -1.5 -1.2
6.5 6.5 6.5 6.5 6.5 6.5 6.5 6.5 6.5 6.5 6.5 6.5 6.5 6.5 6.5 6.5 6.1 5.2 4.7 3.8 2.3 0.6 0.1 -0.5 0.8 1.0 1.1 0.4 -0.3 0.6 0.5 0.6 0.2 0.1 -0.3 -0.8 -0.8 -0.9 -0.8 -1.2 -2.0 -1.0 -0.8 -2.3
6.5 6.5 6.5 6.5 6.5 6.5 6.5 6.5 6.5 6.5 6.5 6.5 6.5 6.5 6.5 6.5 6.5 6.2 5.9 4.3 4.1 2.4 0.8 0.2 0.2 0.9 1.0 0.9 1.8 2.2 1.9 1.7 1.2 1.1 0.4 0.3 0.1 -0.0 0.0 -0.2 -0.1 0.0 0.5 1.9
6.5 6.5 6.5 6.5 6.4 6.4 6.5 6.5 6.5 6.5 6.5 6.5 6.5 6.5 6.5 6.5 6.5 6.5 6.5 6.5 5.6 4.4 2.8 2.0 1.2 0.9 0.7 1.1 2.2 2.8 3.2 3.1 2.7 2.3 1.9 1.7 1.4 1.2 0.8 0.9 1.4 1.9 2.4 3.4
6.5 6.5 6.5 6.5 6.5 6.5 6.5 6.5 6.5 6.5 6.5 6.5 6.5 6.5 6.5 6.5 6.5 6.5 6.5 6.4 5.4 4.1 3.5 2.4 2.6 1.7 1.8 1.3 1.2 1.4 1.7 2.3 2.9 3.4 3.5 3.0 2.7 2.5 2.4 2.5 3.0 3.8 4.0 4.4
6.5 6.5 6.5 6.5 6.5 6.5 6.5 6.5 6.5 6.5 6.5 6.5 6.5 6.5 6.5 6.5 6.5 6.5 6.7 7.0 6.0 5.2 4.6 4.0 3.2 2.8 2.1 2.1 2.1 1.9 2.1 2.4 2.5 2.6 2.6 2.6 3.3 3.9 4.1 4.8 5.2 5.4 5.1 5.2
6.5 6.5 6.5 6.5 6.5 6.5 6.5 6.5 6.5 6.5 6.5 6.5 6.5 6.5 6.5 6.5 6.5 6.5 6.4 6.8 7.2 6.3 5.0 4.2 3.5 3.5 3.1 3.0 3.3 3.5 3.0 3.5 3.4 3.2 3.3 3.5 3.6 4.1 4.5 5.1 5.4 5.4 5.5 5.3
5.8 6.5 6.5 6.5 6.5 6.5 6.5 6.5 6.5 6.5 6.5 6.5 6.5 6.5 6.5 6.5 6.5 6.6 6.9 7.0 6.6 6.2 5.9 5.3 4.3 4.1 3.7 3.7 3.7 3.5 3.9 3.8 3.9 4.3 4.3 4.3 4.4 4.6 5.0 5.7 5.8 6.0 6.2 5.2
6.5 6.5 6.5 6.5 6.5 6.5 6.5 6.5 6.5 6.5 6.5 6.5 6.5 6.5 6.5 6.5 6.5 6.7 6.8 6.8 6.8 6.6 6.3 5.9 5.4 5.0 4.4 4.3 4.0 3.5 2.9 3.1 3.3 3.7 4.2 4.3 4.3 4.5 4.9 5.4 5.3 5.3 5.3 5.6
6.5 6.5 6.5 6.5 6.5 6.5 6.5 6.5 6.5 6.5 6.5 6.5 6.5 6.5 6.5 6.7 6.9 6.8 6.9 6.8 6.8 6.8 6.6 6.0 5.7 5.4 4.8 4.6 4.2 4.0 3.7 3.7 3.6 4.4 4.8 4.8 5.2 5.7 5.6 5.4 5.3 5.4 5.3 5.3
6.5 6.5 6.5 6.5 6.5 6.5 6.5 6.5 6.5 6.5 6.5 6.5 6.5 6.5 6.5 6.5 6.5 6.8 6.7 6.7 6.7 6.5 6.1 5.7 5.3 5.1 5.1 4.8 4.5 3.8 3.6 3.4 3.3 3.9 4.4 4.3 4.3 4.4 4.9 5.6 5.8 5.7 5.7 5.7
6.5 6.5 6.5 6.5 6.5 6.5 6.5 6.5 6.5 6.5 6.5 6.5 6.5 6.5 6.5 6.6 6.7 6.4 6.4 6.4 6.5 6.6 6.4 6.2 5.6 5.6 5.3 4.1 3.7 3.5 4.1 4.0 3.7 3.8 4.0 4.7 4.9 5.0 5.0 5.1 5.2 5.2 5.4 5.4
6.5 6.5 6.5 6.5 6.5 6.5 6.5 6.5 6.5 6.5 6.5 6.5 6.5 6.5 6.6 6.8 6.7 6.8 6.3 6.2 6.3 6.3 6.0 6.2 5.4 5.0 4.4 4.3 2.8 2.8 3.5 3.9 3.8 4.3 4.6 5.1 5.0 5.0 5.0 5.2 4.6 4.6 4.8 4.8
6.5 6.5 6.5 6.5 6.5 6.5 6.5 6.5 6.8 6.5 6.5 6.5 6.6 6.5 6.5 6.7 6.5 6.5 6.5 6.4 6.3 6.2 6.0 5.6 4.9 4.8 3.9 3.8 2.8 2.2 2.8 3.5 3.9 4.8 5.0 5.2 5.3 5.4 5.0 4.7 4.6 5.0 4.9 6.2
6.5 6.5 6.5 6.5 6.5 6.5 6.5 6.6 6.5 6.5 6.5 6.7 6.6 6.5 6.4 6.5 6.6 6.7 6.3 6.1 6.3 5.9 5.5 5.6 4.5 3.0 3.5 3.8 3.2 2.9 2.6 3.4 5.0 5.6 5.6 5.5 5.5 5.2 4.5 4.6 4.6 4.7 4.8 5.6
6.5 6.5 6.5 6.5 6.5 6.5 6.7 6.5 6.5 6.6 6.6 6.4 6.3 6.5 6.7 6.7 6.6 6.6 6.4 6.2 5.8 5.0 4.7 3.7 3.3 2.9 2.7 2.5 2.6 3.9 4.3 5.4 5.1 5.0 5.1 4.9 4.3 4.6 6.3 6.0 5.8 5.7 4.6 4.1
6.5 6.5 6.5 6.5 6.5 6.6 6.9 6.7 5.9 5.7 6.2 6.4 6.6 6.4 6.7 6.6 6.2 6.3 5.8 5.0 4.1 4.7 4.9 5.0 3.9 3.9 3.5 3.9 4.2 4.7 4.9 4.8 4.5 3.8 3.7 3.5 4.2 5.4 6.0 6.1 6.2 6.2 5.0 4.4
6.5 6.7 6.5 6.5 6.5 6.5 6.7 5.9 5.3 5.2 5.5 5.7 5.9 5.9 6.1 5.8 5.7 5.3 5.1 5.0 4.5 4.7 4.8 3.8 3.1 3.4 3.6 3.7 4.7 3.6 3.7 4.2 3.4 3.3 3.1 3.5 3.5 4.6 5.1 5.8 6.1 6.2 4.2 4.5
6.6 6.5 6.5 6.5 6.6 6.5 6.5 6.3 6.0 5.9 6.0 6.1 6.3 6.1 5.9 6.0 6.2 5.4 4.6 4.5 4.5 4.9 4.6 4.2 4.5 4.7 4.3 3.6 2.8 2.1 4.2 3.4 3.4 3.7 3.7 3.7 4.8 4.3 4.5 5.3 5.5 5.9 6.5 7.2
6.6 6.5 6.5 6.5 6.5 6.6 6.6 6.5 6.5 6.2 6.3 6.3 6.1 5.7 5.7 5.8 5.7 5.4 4.2 4.0 3.9 4.0 4.7 4.9 4.7 4.5 3.5 2.7 2.6 2.9 3.3 3.7 3.5 3.7 4.5 4.2 5.2 4.7 5.4 5.6 5.4 6.6 8.7 9.7
Wind_Speed
2 3 5 6 5 3 2 3 5 5 4 3 6 11 20 10 9 10 9 9 10 13 5 7 8 8 8 7 8 8 8 6 5 3 3 1 2 2 3 6 8 9 10 11
4 4 4 4 4 3 3 3 6 6 2 1 7 12 22 14 7 7 9 9 10 6 7 7 8 9 10 9 8 7 7 7 5 3 2 2 3 2 2 3 7 8 10 8
5 2 6 4 3 3 4 5 4 6 5 3 6 8 7 4 3 3 4 6 7 11 11 10 11 11 8 9 9 8 7 7 5 5 4 3 4 3 1 1 2 5 8 9
5 0 4 3 4 7 4 5 2 1 3 3 4 6 7 5 8 5 6 4 6 7 7 7 9 9 11 8 7 7 7 7 5 6 4 5 3 3 3 2 2 2 6 8
5 5 4 4 6 7 6 2 1 2 3 3 2 1 8 3 7 6 7 6 4 7 8 9 11 10 6 7 7 6 7 6 5 5 5 4 3 2 2 3 5 3 4 7
6 1 5 6 2 4 3 2 4 4 3 1 4 5 5 4 1 6 2 4 3 6 6 6 6 8 7 6 6 6 7 5 5 5 5 6 6 6 4 3 3 2 2 2
2 4 1 2 2 2 3 4 4 4 2 5 5 3 9 3 6 5 2 2 6 7 6 6 6 6 7 7 6 6 6 5 4 5 4 5 6 6 7 5 4 4 2 1
4 6 8 5 5 7 5 6 5 6 4 5 0 7 5 1 4 6 7 9 11 11 9 9 7 6 6 5 5 5 6 5 5 4 4 4 5 3 3 4 3 3 3 2
5 6 2 3 2 3 3 4 2 1 1 2 4 7 4 4 6 8 9 11 11 10 11 11 11 10 6 6 3 3 5 4 4 4 4 4 4 5 4 5 4 3 2 2
3 5 3 2 2 2 4 3 3 2 4 6 5 6 6 6 3 4 6 8 8 9 11 11 11 10 9 9 6 4 1 3 3 3 3 2 2 3 4 4 4 4 3 2
5 4 2 4 7 9 2 3 3 2 4 4 4 6 4 7 6 7 6 7 7 7 8 8 10 9 10 10 10 8 9 8 5 3 3 3 2 2 3 3 3 3 2 1
4 4 5 11 3 2 4 8 9 6 5 4 2 11 3 6 7 9 8 9 8 8 8 9 9 9 11 11 10 8 8 8 8 7 6 5 5 4 3 2 2 1 3 2
5 2 4 8 1 0 4 5 5 1 3 14 6 8 5 5 6 5 8 7 8 9 9 8 9 9 9 7 7 6 7 7 5 5 5 5 5 5 4 2 2 3 2 1
7 7 12 15 10 3 4 6 8 7 5 6 17 17 7 10 9 8 8 9 8 8 7 8 7 6 6 6 6 8 8 8 7 6 5 4 3 4 5 3 3 5 3 2
6 14 8 19 13 6 14 16 14 15 17 12 23 18 6 11 11 11 10 9 9 8 7 7 7 5 5 5 6 6 6 7 7 6 5 4 3 3 4 3 3 3 2 3
3 4 4 18 14 16 21 29 21 22 24 24 25 30 8 11 11 11 10 9 8 7 7 7 5 4 5 5 6 7 6 6 5 5 5 5 5 5 4 4 4 3 3 3
6 4 4 13 11 13 15 24 24 15 14 14 18 14 10 11 11 8 8 8 7 6 6 5 5 5 4 5 5 5 5 4 4 5 5 5 4 5 5 5 4 4 4 4
12 9 5 9 10 13 6 2 3 4 1 6 9 11 8 11 10 8 7 7 7 6 5 5 4 4 3 3 4 4 5 4 4 4 4 4 5 5 5 5 5 5 4 5
21 17 8 7 11 11 4 3 3 6 1 3 7 8 12 13 10 6 7 6 5 5 4 4 3 2 3 3 3 4 4 4 4 5 5 5 5 5 5 5 5 5 5 5
12 21 13 7 11 13 1 2 4 2 4 2 9 7 9 5 1 3 6 6 6 6 4 4 5 4 4 5 5 3 3 4 4 5 6 6 6 6 6 6 6 4 4 7
3 3 16 16 13 4 2 4 6 5 2 7 9 7 4 4 3 5 7 5 5 4 5 5 5 3 4 4 5 5 3 4 4 7 7 7 6 6 6 5 3 4 6 7
5 4 6 7 8 12 12 2 1 3 8 7 8 7 8 8 7 6 6 4 4 4 4 3 3 4 4 3 2 5 5 5 6 6 7 8 7 7 8 7 6 7 6 6
4 3 4 5 1 3 5 7 9 7 6 6 6 6 5 6 6 5 3 3 2 4 5 4 3 3 4 5 4 5 7 8 6 6 8 7 7 8 8 9 7 5 5 4
4 7 3 2 4 5 6 9 11 10 8 5 4 4 6 5 3 2 3 3 3 3 5 2 2 5 8 6 7 6 8 6 6 8 7 7 5 9 6 5 6 6 3 5
4 7 4 4 3 4 9 8 6 6 4 4 4 6 6 4 2 2 2 4 4 5 4 3 5 7 7 6 6 7 8 6 7 7 6 6 7 7 6 7 6 6 7 8
6 5 4 3 5 2 4 5 5 5 7 7 7 6 4 4 3 3 4 4 4 6 4 6 6 7 7 6 8 8 6 6 6 7 7 6 6 5 6 6 7 15 19 21
Wind_Direction
12 66 221 221 194 166 165 220 248 252 273 264 224 273 286 287 239 248 222 204 206 212 205 164 165 155 145 153 155 160 153 161 141 138 133 143 117 81 43 51 51 55 59 60
18 229 203 132 150 163 193 252 258 286 230 239 301 278 280 290 251 229 230 211 206 170 164 164 158 161 169 165 168 165 167 163 167 150 167 140 143 111 105 70 53 56 60 57
181 207 143 155 172 191 224 205 221 232 340 269 319 282 295 300 268 251 235 223 198 195 179 173 173 176 163 173 176 172 169 166 165 158 116 85 84 81 93 35 44 36 63 62
229 122 170 173 231 161 275 195 182 257 38 249 13 289 305 301 296 258 258 216 210 182 160 171 171 173 183 182 164 158 156 161 160 154 148 162 167 162 186 150 123 71 71 74
257 167 191 203 220 167 228 134 182 176 181 10 259 182 267 321 302 269 238 237 206 187 162 176 184 183 159 148 162 155 152 155 151 158 174 173 153 130 130 125 125 108 72 66
241 239 188 210 158 178 128 90 56 53 92 320 218 166 274 234 266 322 323 230 178 120 128 130 125 127 135 139 146 153 153 157 154 149 154 168 169 158 145 151 148 150 106 70
296 221 204 160 138 50 101 61 322 331 352 232 174 176 241 295 325 278 232 81 81 71 83 103 123 137 140 152 153 153 155 156 145 136 139 160 164 166 169 169 166 165 155 143
205 310 179 176 202 183 178 171 163 263 231 262 96 244 251 199 35 35 41 66 61 53 52 52 59 92 105 121 144 148 157 145 153 147 139 143 151 155 156 161 160 166 166 174
175 266 116 169 149 145 178 188 187 219 83 339 228 292 289 94 40 43 46 56 51 47 46 48 43 35 70 101 112 154 160 153 162 163 151 153 155 156 160 151 143 150 143 155
220 290 205 140 105 54 167 171 81 5 257 250 269 267 234 197 161 40 56 69 67 65 58 51 48 46 53 53 47 40 113 160 160 158 165 162 139 123 127 128 140 153 157 123
159 162 234 115 199 187 131 227 222 190 170 225 281 253 203 214 162 139 103 88 81 64 66 58 56 51 42 48 46 34 33 34 34 33 31 70 75 104 121 128 142 143 122 130
207 173 235 217 238 198 182 205 177 207 232 236 262 265 142 128 137 140 134 119 97 83 72 64 58 57 54 42 38 38 41 43 35 39 48 42 34 17 9 7 41 118 152 109
178 239 317 315 19 351 213 203 199 91 82 239 240 257 162 130 100 97 120 119 112 100 80 67 58 45 52 49 39 34 45 41 25 30 34 29 18 356 324 319 300 145 80 347
161 202 235 251 250 143 206 217 197 177 218 227 234 259 185 198 171 151 139 121 110 96 88 88 77 57 49 46 37 29 26 25 21 19 17 10 1 356 347 64 7 300 268 262
189 249 209 250 262 261 270 259 237 222 229 236 264 255 259 204 171 157 138 121 112 98 85 69 67 55 53 45 32 32 25 10 359 354 357 354 333 312 316 253 244 257 270 255
200 259 221 264 259 261 265 259 254 245 247 242 251 263 111 113 112 120 125 125 115 101 88 73 59 49 43 34 28 19 16 9 357 349 345 342 345 333 330 316 307 295 278 275
181 205 209 256 259 256 255 251 243 237 232 226 241 258 144 140 136 129 114 102 105 103 97 85 67 41 30 22 12 4 359 359 9 354 355 353 345 345 343 330 318 307 285 275
228 212 222 260 265 240 264 353 306 234 336 110 108 133 141 126 99 88 78 102 98 91 75 76 50 25 26 22 13 340 342 348 348 351 338 333 336 329 328 323 312 307 289 280
226 235 254 246 233 270 258 188 157 186 230 44 130 119 115 111 99 87 88 71 64 72 57 54 37 355 359 357 341 343 346 345 344 343 331 316 319 316 310 304 304 297 290 283
225 227 232 236 253 257 18 37 350 259 250 84 110 94 130 148 160 102 87 67 58 35 21 23 4 358 6 341 342 346 333 353 346 333 315 310 307 301 289 290 289 276 277 286
163 200 227 235 250 227 14 343 318 205 328 103 110 108 110 127 95 102 101 80 60 39 6 16 357 329 308 330 340 327 333 325 308 314 305 301 293 293 281 280 274 281 280 282
203 219 235 234 247 267 355 336 122 23 27 55 64 74 93 105 103 79 81 56 26 359 341 337 308 306 296 305 301 302 303 305 311 303 306 299 298 300 308 302 294 285 278 278
269 2 340 29 78 32 359 56 46 68 70 28 43 40 72 77 57 54 16 360 344 337 321 298 284 297 298 309 296 303 306 305 294 302 299 292 290 299 304 299 292 290 288 279
57 9 55 171 42 56 40 50 48 46 60 48 57 50 56 65 37 11 350 331 322 304 304 264 296 313 301 289 297 283 289 298 298 295 289 284 284 297 298 306 293 288 269 274
333 337 2 92 72 67 50 42 51 56 57 49 46 36 32 16 353 263 305 307 281 287 297 301 295 286 278 280 274 276 294 293 287 288 284 285 290 286 285 281 281 278 272 265
357 342 6 5 345 22 46 38 34 42 26 18 20 3 358 349 330 303 265 262 291 295 281 285 277 282 287 287 287 289 286 281 278 284 289 286 290 287 281 283 288 285 292 294